Location: Berbisdorf
(50.7638°N, 12.9442°E)
Time: 13:27:13
(UTC+00:00)

STARLINK-1317 - Pass Details

Date: 07 October 2020
Orbit: 549 x 550 km, 53.0° (Epoch: 27 October)

Event Time Altitude Azimuth Distance (km) Brightness Sun altitude
Exits shadow 02:17:07 15° 125° (SE) 1,535 6.1 -28.6°
Drops below altitude 10° 02:19:03 10° 98° (E) 1,822 6.9 -28.3°
Sets 02:22:04 0° 75° (ENE) 2,721 8.3 -27.9°
